Dewpoint
43 42 41 34 17 20 5 1 17 7 8 13 14 17 25 39 43 40 61 63 64 66 70 70 71 71 71 70 70 70 71 71 71 71 71 72 72 72 72 72 71 71 70 70 70 69 69 69 69
41 39 33 32 10 -6 -13 14 6 11 12 16 15 27 36 38 49 58 60 64 65 68 69 70 71 71 71 70 71 70 71 71 71 71 71 72 72 72 72 72 71 71 70 69 69 69 69 69 69
38 39 25 27 18 -11 -14 5 12 15 17 16 15 18 31 39 53 59 62 66 66 68 69 70 70 70 71 70 71 71 71 70 71 71 71 72 72 72 72 71 71 71 70 69 69 68 69 68 68
32 34 34 22 13 16 4 10 15 15 17 16 15 12 19 50 53 61 66 67 66 68 69 70 70 70 70 70 71 71 70 70 70 71 71 71 72 72 71 71 71 71 70 69 68 68 68 67 68
41 37 15 25 21 17 23 22 21 18 19 17 18 15 17 43 61 64 66 66 65 67 68 69 70 70 70 70 71 71 70 70 70 70 71 71 71 71 70 70 71 71 71 70 69 68 67 67 67
26 37 27 17 21 20 22 23 22 19 19 19 18 18 23 54 59 64 65 65 66 67 67 68 69 70 70 71 71 70 70 69 70 70 70 70 70 70 70 69 70 71 71 70 68 67 67 66 67
27 33 26 28 25 24 22 24 22 22 21 20 20 22 29 51 60 63 64 65 66 67 67 67 68 69 69 70 71 70 69 69 69 70 70 70 69 68 69 69 69 69 69 68 67 67 66 66 66
38 34 30 29 25 25 26 26 24 25 24 23 21 24 24 49 60 63 63 64 65 66 66 67 68 68 69 70 70 69 69 69 69 69 69 69 68 68 68 69 69 69 68 67 67 66 66 66 66
35 29 28 27 26 26 27 27 29 29 27 28 24 25 33 53 63 61 61 62 63 64 65 66 66 67 67 68 69 69 69 69 69 69 69 68 68 68 68 68 68 68 68 67 66 65 66 65 65
20 21 20 28 29 28 30 31 31 30 30 29 29 29 37 61 60 58 57 57 61 63 64 64 65 66 66 67 68 68 69 69 69 69 69 68 68 68 68 68 68 67 67 67 66 65 65 65 65
15 13 16 19 22 29 28 26 29 28 27 29 29 29 39 59 59 57 57 55 56 61 63 63 64 65 65 65 66 66 67 67 67 68 68 68 67 67 67 67 67 67 66 66 66 65 65 64 64
19 16 16 19 18 15 15 18 16 16 19 27 29 29 31 48 59 57 56 55 56 59 62 63 64 64 64 65 65 65 66 66 67 67 67 67 67 66 66 66 66 66 65 65 64 63 63 63 63
13 15 16 16 15 14 13 12 14 16 18 19 24 27 28 36 53 59 57 57 57 58 61 63 64 64 64 65 65 65 65 65 66 66 67 67 65 66 66 65 65 65 65 64 63 62 62 62 62
16 18 18 17 16 14 11 8 9 10 17 18 19 21 25 28 38 55 59 58 60 59 60 63 64 64 64 64 64 64 64 64 64 65 66 66 66 65 66 65 65 64 64 64 63 62 61 61 62
19 16 14 9 9 9 11 3 8 10 12 15 17 17 20 26 30 45 56 58 61 62 60 62 63 64 64 64 64 64 64 64 63 64 65 65 65 65 64 64 64 64 63 63 62 61 61 60 61
17 16 9 6 6 6 5 -2 0 9 14 15 16 19 19 22 26 35 53 57 59 62 62 62 62 63 63 64 64 64 64 64 63 64 64 64 64 65 64 64 64 63 63 62 62 61 60 60 60
18 5 9 9 9 8 7 4 5 12 13 13 14 13 18 21 24 27 44 55 57 61 62 64 62 62 63 63 63 63 63 64 64 64 65 64 64 65 65 64 63 63 62 62 61 60 60 59 59
6 9 11 11 12 13 14 14 16 17 13 12 12 14 15 18 22 26 27 43 53 58 60 63 64 63 62 63 64 64 64 64 64 64 64 65 65 65 64 64 63 63 63 62 61 61 60 60 60
16 15 15 16 17 17 17 18 18 19 18 17 15 12 14 15 20 25 26 28 38 53 58 61 64 64 64 63 63 63 62 63 64 64 64 64 64 65 65 64 63 63 62 62 62 61 60 60 61
19 19 18 19 20 20 19 19 21 21 19 19 18 15 12 15 16 24 26 27 29 42 56 59 61 64 64 64 63 62 63 64 64 65 65 64 64 64 65 65 63 63 62 62 61 61 60 60 61
21 21 19 19 21 22 23 24 24 22 20 19 18 16 13 14 17 25 27 27 27 30 41 55 59 61 64 64 64 62 63 63 63 64 64 65 65 65 64 64 64 63 63 62 61 62 61 59 60
19 20 21 21 23 23 23 16 17 17 16 15 16 14 14 21 19 24 28 40 42 45 40 49 58 60 62 63 63 62 62 61 62 63 64 65 65 65 65 64 64 63 63 62 61 62 61 60 58
22 24 28 27 28 24 18 19 13 15 15 17 18 21 21 23 19 37 44 44 45 48 49 51 53 54 58 62 62 61 61 61 61 62 62 62 64 65 65 64 64 64 64 63 62 61 61 60 59
25 29 29 29 25 18 14 15 12 13 14 23 34 40 40 39 41 42 42 42 42 42 43 43 44 45 47 50 52 55 57 59 60 59 54 55 59 63 64 64 64 64 64 63 62 62 61 61 60
29 24 16 10 13 10 16 22 15 19 24 22 31 41 40 40 40 39 39 39 39 40 41 41 41 41 43 44 45 46 46 48 52 57 58 57 60 61 63 63 64 64 63 63 62 62 61 61 60
27 29 19 10 9 13 19 20 24 38 41 40 40 39 38 37 37 37 37 37 38 38 38 39 39 39 40 41 41 41 42 42 44 46 49 56 59 60 61 62 63 63 63 62 62 61 61 61 60
30 27 26 19 20 19 20 25 34 37 37 38 37 36 36 36 36 36 36 36 36 36 36 37 37 37 38 38 39 38 39 39 40 40 43 45 49 53 60 61 62 63 62 61 61 60 60 60 59
32 32 24 21 16 17 22 26 24 32 32 34 33 34 35 35 35 35 35 34 35 35 35 35 35 35 35 36 37 37 38 38 39 40 41 43 46 48 50 58 60 61 61 61 60 59 59 59 58
30 30 30 31 27 22 19 24 30 31 34 33 33 33 34 34 33 33 33 33 34 34 34 34 33 33 33 34 35 36 37 38 38 39 40 42 44 46 48 51 56 59 59 60 59 58 58 58 58
32 32 31 25 24 27 26 22 31 31 31 32 33 34 34 33 33 33 32 31 31 32 32 32 32 32 33 33 33 34 36 36 37 37 38 40 42 44 46 51 54 56 58 59 59 58 58 57 57
Wind_Speed
2 2 3 5 1 4 7 7 3 7 3 1 5 5 8 4 11 7 7 13 21 25 20 22 22 20 19 19 20 20 21 21 21 22 23 23 23 23 21 20 19 19 18 17 16 15 15 15 15
3 1 6 4 3 2 11 6 15 10 7 19 13 3 4 6 4 3 11 8 19 26 21 21 22 21 21 19 19 20 21 21 21 21 22 22 22 22 20 20 19 19 18 17 16 15 15 15 16
3 4 3 4 6 16 8 6 11 8 16 10 7 4 5 6 5 5 3 16 19 21 20 20 24 23 23 22 19 20 20 21 22 21 21 21 21 21 19 19 19 19 18 17 16 16 16 16 16
2 4 5 5 15 14 14 7 3 19 5 2 8 15 7 2 3 4 15 20 22 20 19 21 24 23 23 23 21 20 21 21 22 22 21 21 20 20 19 19 19 19 18 18 17 17 17 17 17
5 3 4 5 14 17 8 11 9 16 15 11 8 10 17 5 2 7 15 20 27 20 17 21 24 24 23 23 21 20 21 22 22 22 21 20 20 19 19 19 19 19 18 18 17 17 17 17 18
1 3 5 16 13 11 13 7 7 14 9 22 4 10 9 7 4 9 6 13 12 19 18 19 22 23 22 21 22 21 21 22 21 21 21 20 20 19 19 18 19 19 18 18 18 18 16 16 16
3 4 8 6 7 9 14 1 5 11 10 13 5 12 8 9 4 14 8 8 12 13 15 15 17 21 24 21 21 23 22 22 22 22 22 21 20 20 19 18 17 17 17 17 18 18 16 15 15
2 2 4 6 9 16 17 9 4 9 14 6 3 4 9 4 8 9 12 8 11 11 12 15 13 14 18 20 22 22 22 22 22 22 22 22 21 20 19 18 17 17 16 16 17 18 16 14 14
3 7 10 7 8 6 9 10 3 6 9 10 4 4 12 6 14 12 13 10 11 12 13 14 15 15 14 17 19 20 20 21 21 20 21 20 15 17 17 17 18 17 17 16 15 16 15 14 13
7 7 6 7 7 15 15 21 20 14 23 18 20 5 13 5 14 22 23 26 19 20 19 17 18 17 16 14 19 17 17 15 15 14 16 13 15 15 15 16 18 18 18 17 16 15 14 12 9
3 10 5 5 9 12 11 20 13 21 39 11 23 13 6 7 12 16 19 26 41 24 18 21 20 19 18 15 15 15 15 16 16 16 16 14 13 13 13 13 13 14 16 14 14 13 12 12 9
8 7 6 8 12 16 18 13 24 30 44 18 24 23 14 12 17 21 21 21 20 29 23 21 21 20 20 15 17 15 16 17 15 16 17 16 14 14 13 13 14 14 13 15 15 14 13 12 11
13 7 13 15 19 16 16 20 25 47 22 25 23 26 20 17 20 23 22 13 12 18 19 22 21 21 20 18 17 18 17 16 15 16 16 16 16 16 13 13 14 13 13 14 14 15 13 12 12
7 22 23 16 19 18 26 31 21 23 19 24 25 29 24 24 24 23 23 22 21 18 20 18 23 21 20 20 20 17 16 18 16 15 18 16 15 16 14 13 14 14 14 13 14 15 14 13 13
8 22 25 14 12 7 8 30 22 25 26 34 31 31 27 23 28 29 28 30 28 25 21 24 22 19 21 20 19 17 16 15 17 16 17 18 17 16 15 13 13 13 13 14 11 10 9 10 9
8 9 13 5 11 9 4 43 16 12 10 20 27 26 27 27 25 29 28 28 26 24 24 24 22 23 23 23 21 19 17 15 14 14 15 18 16 15 14 13 12 12 13 13 13 13 12 11 11
3 17 14 18 2 13 12 27 9 22 27 30 28 30 28 31 24 29 28 28 26 27 24 25 26 26 27 21 16 16 17 16 13 13 13 16 17 15 14 13 13 14 13 13 14 8 10 11 10
10 14 10 23 11 18 27 36 46 35 30 35 30 33 35 33 34 26 27 26 30 26 28 27 26 26 25 16 14 11 12 15 15 17 18 19 17 17 16 13 15 15 13 12 13 13 11 9 12
18 19 24 33 31 36 31 35 34 43 31 35 31 32 38 36 34 24 27 30 28 26 29 28 29 26 22 21 22 19 23 20 19 18 18 19 17 18 18 14 15 15 16 16 16 13 12 10 11
19 19 33 33 33 27 37 42 38 35 42 33 34 33 37 39 33 30 28 26 27 31 29 29 29 27 27 24 23 11 19 16 15 15 17 18 20 20 20 18 18 18 16 17 17 17 9 9 15
26 17 29 29 33 36 34 42 46 29 32 42 37 41 39 39 35 28 25 25 27 25 28 26 26 27 27 24 17 8 12 10 11 14 17 19 20 20 21 20 18 18 17 19 21 21 18 13 13
23 8 19 24 18 22 10 31 44 33 34 38 30 34 37 40 34 31 21 10 7 6 7 11 12 14 14 19 20 20 18 16 13 15 11 14 21 21 22 21 20 19 19 18 19 18 21 17 15
15 17 19 18 20 17 31 13 29 24 33 31 30 33 36 34 31 12 18 19 18 17 19 18 20 18 14 15 17 17 16 11 8 12 10 4 8 11 14 18 19 19 18 19 20 20 19 20 18
21 16 16 10 4 10 16 10 36 13 13 17 18 12 9 18 25 25 24 24 22 23 23 21 24 22 20 20 15 14 11 9 13 13 7 5 6 10 16 15 18 20 21 20 21 23 24 21 17
2 5 10 7 4 14 11 18 21 32 31 21 5 23 24 24 27 26 27 26 29 24 22 22 23 23 20 22 18 15 11 9 9 5 14 16 12 16 18 16 19 19 19 19 19 20 22 22 22
15 5 3 8 11 32 27 9 12 20 28 25 22 25 28 27 28 29 28 26 26 22 22 22 21 21 19 15 14 13 13 10 8 6 2 4 12 16 14 16 20 20 18 18 17 17 18 18 21
1 5 7 8 14 11 8 7 3 18 24 22 25 28 26 26 26 26 26 24 23 21 22 21 18 17 17 16 13 16 13 14 12 10 9 6 11 12 10 15 18 19 20 20 20 20 21 19 21
4 9 3 4 6 7 8 8 23 14 18 21 23 23 23 23 24 24 22 22 17 16 17 18 17 17 16 13 14 14 13 12 11 11 11 12 13 13 16 16 18 21 21 22 22 20 19 21 21
6 4 4 5 6 7 10 5 21 22 18 19 21 21 21 22 21 21 20 17 15 16 18 18 18 18 16 18 15 12 13 15 16 16 15 14 15 15 16 18 20 22 24 22 24 22 20 23 22
2 6 5 6 6 7 7 6 19 22 23 20 20 18 20 21 20 23 21 18 16 22 22 14 18 22 20 20 18 18 15 13 12 12 15 15 18 17 19 19 22 24 25 24 23 21 21 23 23
Wind_Direction
20 26 79 54 85 40 262 253 263 259 244 341 310 226 214 238 165 214 337 163 140 147 154 155 158 154 147 140 137 135 132 130 126 125 129 131 132 132 134 132 129 126 126 122 117 115 113 112 108
106 53 52 94 125 233 269 249 242 257 301 319 309 180 220 248 255 265 126 186 151 146 152 156 159 155 149 144 141 139 138 135 133 133 134 135 136 136 137 135 133 128 125 122 121 121 119 116 116
106 59 121 135 142 231 247 238 274 278 306 311 337 324 308 299 302 221 188 152 144 144 153 159 160 158 154 149 148 145 141 139 138 138 141 141 141 141 143 140 137 132 132 130 128 124 121 121 121
93 44 57 192 205 242 227 220 216 312 345 96 7 312 305 310 285 270 147 144 146 149 154 162 163 161 157 153 153 153 148 145 144 143 145 146 147 145 148 144 140 136 136 135 132 127 125 128 125
46 68 215 216 233 249 255 257 268 289 296 284 336 294 314 293 87 132 160 155 156 154 156 165 165 161 160 158 158 158 156 152 151 149 149 150 151 150 149 150 147 141 142 137 135 131 133 134 131
121 102 226 239 240 260 281 254 253 263 275 295 319 311 287 328 142 148 175 155 150 152 158 165 167 162 162 163 164 163 162 158 157 156 154 153 154 152 153 151 147 144 144 141 141 136 141 141 140
194 195 235 236 248 272 267 291 235 282 284 297 310 321 292 321 323 140 138 122 133 145 155 167 172 168 164 166 170 167 167 165 163 163 159 158 159 158 158 155 151 148 149 147 146 144 149 152 145
135 204 243 228 235 261 264 288 281 306 291 308 10 295 318 332 137 118 119 127 140 145 162 168 173 173 166 168 173 172 170 170 169 168 165 164 165 166 166 162 159 156 154 155 151 150 156 155 147
125 251 247 241 233 256 289 285 281 302 262 285 248 304 316 293 143 145 150 158 163 167 172 174 172 175 180 173 173 174 174 174 173 171 170 166 167 173 172 172 169 162 163 165 161 155 159 159 151
208 236 249 216 240 278 285 293 308 299 286 283 285 287 304 181 179 179 187 185 187 184 182 180 177 180 179 182 170 167 174 177 176 173 172 168 169 175 175 176 176 170 169 169 170 163 161 155 155
239 247 288 310 316 327 318 306 306 296 280 265 283 305 311 230 213 208 220 197 191 184 175 183 180 179 179 180 175 174 177 176 181 180 177 174 172 175 179 177 181 177 175 170 167 161 162 164 163
300 269 301 301 340 334 315 305 289 279 268 299 292 287 287 263 228 222 228 226 200 186 185 180 180 181 180 176 179 180 179 181 181 184 177 174 178 182 183 182 186 181 177 174 170 168 168 169 173
265 285 305 307 312 304 297 286 277 269 301 290 278 275 262 253 238 227 227 239 225 207 193 186 180 183 180 179 183 182 183 188 190 188 182 176 183 186 184 188 185 185 179 178 175 173 173 173 176
301 304 298 301 292 269 269 270 254 270 294 278 266 265 261 249 244 233 221 218 213 204 206 191 192 183 181 180 183 186 188 186 188 195 194 183 185 188 188 189 188 189 184 180 178 181 180 183 181
279 304 307 276 264 266 298 280 245 273 267 277 276 274 273 257 248 235 219 213 211 206 195 199 196 185 186 187 182 185 190 192 190 193 195 194 192 190 189 186 187 189 183 178 173 176 174 180 188
328 290 312 95 308 274 295 277 291 284 319 296 299 288 269 257 244 252 226 214 204 203 193 195 195 195 191 195 189 185 183 190 194 190 189 195 197 191 178 178 186 180 180 178 182 184 187 193 193
279 281 283 311 60 288 207 288 298 333 317 305 305 297 293 273 248 242 238 216 205 194 196 190 191 198 198 197 195 191 176 180 181 175 183 190 195 185 180 180 177 176 180 181 180 185 184 199 203
283 279 279 289 271 267 279 276 285 289 279 276 278 287 288 282 261 237 239 225 216 198 195 194 191 198 197 184 181 189 188 186 183 191 192 184 191 185 183 179 179 176 180 181 181 190 186 191 197
268 272 274 273 280 290 285 280 277 287 278 273 270 267 275 274 274 245 233 231 219 205 193 189 189 195 181 184 183 193 203 201 195 196 192 189 186 184 185 184 181 180 186 188 187 188 189 194 175
260 263 269 275 277 279 282 286 279 270 270 265 268 262 259 271 272 256 230 225 214 206 195 191 194 188 187 192 196 192 195 204 206 194 186 188 189 183 187 185 186 188 187 185 184 183 175 189 174
262 254 270 270 293 289 280 279 282 275 256 266 259 254 251 254 258 248 235 225 214 210 197 194 193 192 189 188 176 136 139 134 176 198 196 192 189 187 188 187 185 189 190 194 191 187 185 184 185
283 245 273 277 286 287 7 295 282 284 276 266 259 246 247 245 239 235 226 129 171 189 154 137 147 165 172 168 171 180 180 184 200 204 213 198 191 191 196 191 184 193 193 195 195 192 192 177 189
249 268 286 271 273 302 293 261 286 278 282 283 271 250 243 229 223 167 103 90 89 88 90 95 100 93 103 134 155 161 164 166 140 129 124 52 282 196 194 195 190 201 198 200 192 192 194 194 184
262 296 270 265 248 274 298 236 292 313 282 277 333 73 98 120 109 97 90 84 73 67 69 72 81 73 73 83 83 112 123 143 150 157 142 265 351 247 217 207 202 208 207 201 196 191 190 194 197
92 356 322 328 295 272 326 310 264 297 295 274 343 82 73 73 80 80 75 69 64 56 58 61 65 65 58 70 71 72 79 86 98 77 145 167 234 235 234 211 215 211 209 208 201 194 193 197 197
299 175 251 292 304 305 308 253 309 2 60 61 67 72 70 61 63 63 62 63 62 57 58 57 56 59 54 52 59 58 49 45 46 59 33 124 226 236 231 219 224 223 215 207 202 204 201 197 203
16 207 224 266 272 282 259 281 260 37 40 52 60 57 57 59 57 57 56 58 58 53 55 54 51 54 47 42 36 40 33 26 9 359 347 301 273 273 252 225 222 222 217 209 205 203 201 196 205
238 313 312 231 295 291 319 324 348 33 43 42 49 49 55 55 53 51 50 53 55 60 62 61 54 50 43 37 32 25 12 7 358 354 336 312 297 289 281 271 235 229 224 217 212 215 207 199 205
326 338 311 266 221 306 317 11 355 10 37 54 51 47 50 52 51 48 44 42 48 57 56 50 45 41 35 31 22 14 8 359 353 342 324 308 297 283 273 267 262 244 231 219 215 212 211 206 203
306 302 288 278 312 281 260 57 358 14 17 28 40 40 46 52 48 42 33 28 34 49 47 40 35 29 21 20 10 11 3 354 343 322 306 302 290 283 267 262 256 247 234 219 211 211 212 206 196